DW6399 Weather Reports


time (UTC)temp
F
wind
direction
speed
knots
gust
knots
rain 1hr
in
rain 24hr
in
rain mn
in
humidity
%
barometer
mb
20260510185403 51 138 4.3 8.7 0.00 0.00 0.00 50 1007.4
20260510184503 52 138 5.2 10.4 0.00 0.00 0.00 50 1007.4
20260510183603 52 138 4.3 8.7 0.00 0.00 0.00 49 1007.5
20260510182703 53 140 4.3 7.8 0.00 0.00 0.00 49 1007.6
20260510181803 53 141 5.2 9.6 0.00 0.00 0.00 48 1007.6
20260510180924 54 140 5.2 8.7 0.00 0.00 0.00 47 1007.6
20260510180003 54 139 6.1 9.6 0.00 0.00 0.00 47 1007.6
20260510175403 54 141 6.1 9.6 0.00 0.00 0.00 47 1007.7
20260510174503 54 140 6.1 10.4 0.00 0.00 0.00 46 1007.8
20260510173624 55 141 5.2 10.4 0.00 0.00 0.00 46 1007.9
20260510172703 55 137 5.2 8.7 0.00 0.00 0.00 46 1008.0
20260510171824 55 133 4.3 8.7 0.00 0.00 0.00 45 1008.0
20260510170903 56 138 5.2 9.6 0.00 0.00 0.00 43 1008.1
20260510170024 56 148 6.1 12.2 0.00 0.00 0.00 42 1008.2
20260510165403 56 152 5.2 10.4 0.00 0.00 0.00 41 1008.3
20260510164503 56 146 7.0 11.3 0.00 0.00 0.00 40 1008.4
20260510163603 56 152 7.0 10.4 0.00 0.00 0.00 41 1008.5
20260510162703 57 156 7.8 13.0 0.00 0.00 0.00 40 1008.6
20260510161803 57 153 7.8 15.6 0.00 0.00 0.00 39 1008.7
20260510160903 57 155 7.8 17.4 0.00 0.00 0.00 39 1008.8
20260510160003 58 164 7.0 13.9 0.00 0.00 0.00 38 1008.9
20260510155424 58 162 8.7 14.8 0.00 0.00 0.00 37 1009.0
20260510154503 58 162 7.0 15.6 0.00 0.00 0.00 36 1009.1
20260510153603 59 166 7.8 16.5 0.00 0.00 0.00 36 1009.2
20260510152703 59 170 7.0 13.0 0.00 0.00 0.00 35 1009.2
20260510151803 58 159 6.1 12.2 0.00 0.00 0.00 36 1009.4
20260510150924 59 163 7.8 13.0 0.00 0.00 0.00 34 1009.5
20260510150003 59 152 10.4 17.4 0.00 0.00 0.00 34 1009.6
20260510145403 59 154 10.4 17.4 0.00 0.00 0.00 34 1009.7
20260510144504 59 164 8.7 17.4 0.00 0.00 0.00 34 1009.8
20260510143604 59 157 7.8 13.0 0.00 0.00 0.00 35 1009.9
20260510142704 60 153 9.6 18.2 0.00 0.00 0.00 33 1010.0
20260510141806 60 160 7.8 18.2 0.00 0.00 0.00 33 1010.1
20260510140907 60 162 7.8 19.1 0.00 0.00 0.00 34 1010.2
20260510140004 60 168 7.8 18.2 0.00 0.00 0.00 34 1010.3
20260510135404 60 165 7.8 19.1 0.00 0.00 0.00 34 1010.4
20260510134505 60 159 9.6 19.1 0.00 0.00 0.00 32 1010.4
20260510133604 60 156 8.7 14.8 0.00 0.00 0.00 35 1010.5
20260510132704 61 158 9.6 23.5 0.00 0.00 0.00 33 1010.6
20260510131804 60 170 7.0 15.6 0.00 0.00 0.00 35 1010.8
20260510130925 60 165 7.8 16.5 0.00 0.00 0.00 34 1011.0
20260510130004 60 162 8.7 17.4 0.00 0.00 0.00 34 1011.0
20260510125404 60 153 8.7 22.6 0.00 0.00 0.00 35 1011.0
20260510124505 59 159 9.6 19.1 0.00 0.00 0.00 37 1011.3
20260510123604 59 156 9.6 19.1 0.00 0.00 0.00 36 1011.2
20260510122728 60 163 10.4 22.6 0.00 0.00 0.00 34 1011.5
20260510121804 60 167 7.8 18.2 0.00 0.00 0.00 36 1011.4
20260510120904 59 155 10.4 17.4 0.00 0.00 0.00 37 1011.6
20260510120004 59 163 7.8 18.2 0.00 0.00 0.00 38 1011.7
20260510115404 59 170 6.1 18.2 0.00 0.00 0.00 38 1011.9
20260510114504 59 167 7.0 13.9 0.00 0.00 0.00 38 1012.0
20260510113625 59 173 6.1 13.9 0.00 0.00 0.00 37 1012.1
20260510112704 58 172 7.0 18.2 0.00 0.00 0.00 38 1012.2
20260510111804 58 157 8.7 18.2 0.00 0.00 0.00 38 1012.4
20260510110904 57 160 11.3 20.0 0.00 0.00 0.00 38 1012.6
20260510110005 58 160 10.4 22.6 0.00 0.00 0.00 36 1012.6
20260510105404 58 161 9.6 18.2 0.00 0.00 0.00 38 1012.6
20260510104504 57 160 12.2 20.0 0.00 0.00 0.00 37 1013.0
20260510103604 57 162 11.3 19.1 0.00 0.00 0.00 37 1013.1
20260510102704 57 159 10.4 21.7 0.00 0.00 0.00 38 1013.1
20260510101804 57 165 12.2 21.7 0.00 0.00 0.00 37 1013.1
20260510100904 57 165 12.2 23.5 0.00 0.00 0.00 35 1013.4
20260510100004 57 159 9.6 23.5 0.00 0.00 0.00 34 1013.3
20260510095404 57 156 9.6 19.1 0.00 0.00 0.00 36 1013.5
20260510094504 58 158 9.6 19.1 0.00 0.00 0.00 33 1013.6
20260510093604 58 163 8.7 14.8 0.00 0.00 0.00 34 1013.8
20260510092725 57 162 7.8 15.6 0.00 0.00 0.00 37 1013.8
20260510091804 56 162 8.7 16.5 0.00 0.00 0.00 38 1013.9
20260510090904 56 154 9.6 19.1 0.00 0.00 0.00 35 1014.0
20260510090004 56 165 9.6 18.2 0.00 0.00 0.00 37 1014.1
20260510085404 56 159 11.3 22.6 0.00 0.00 0.00 37 1014.2
20260510084525 56 142 11.3 20.0 0.00 0.00 0.00 38 1014.2
20260510083604 56 155 10.4 20.0 0.00 0.00 0.00 38 1014.4
20260510082704 56 158 8.7 16.5 0.00 0.00 0.00 39 1014.5
20260510081804 55 152 11.3 20.9 0.00 0.00 0.00 39 1014.7
20260510080904 55 157 9.6 16.5 0.00 0.00 0.00 40 1014.9
20260510080004 54 158 8.7 14.8 0.00 0.00 0.00 41 1015.0
20260510075425 54 171 9.6 15.6 0.00 0.00 0.00 42 1015.2
20260510074525 54 157 8.7 15.6 0.00 0.00 0.00 42 1015.4
20260510073604 53 159 7.8 14.8 0.00 0.00 0.00 44 1015.4
20260510072725 53 159 7.8 14.8 0.00 0.00 0.00 44 1015.6
20260510071804 53 159 7.8 13.0 0.00 0.00 0.00 45 1015.7
20260510070925 52 154 8.7 15.6 0.00 0.00 0.00 44 1015.8
20260510070004 52 162 7.8 15.6 0.00 0.00 0.00 44 1016.0
20260510065404 52 155 9.6 16.5 0.00 0.00 0.00 47 1016.0
20260510064504 52 158 7.8 16.5 0.00 0.00 0.00 49 1016.1
20260510063604 52 157 6.1 13.0 0.00 0.00 0.00 51 1016.3
20260510062725 51 148 7.0 10.4 0.00 0.00 0.00 55 1016.4
20260510061804 50 156 6.1 10.4 0.00 0.00 0.00 54 1016.5
20260510060904 50 165 5.2 9.6 0.00 0.00 0.00 56 1016.5
20260510060004 49 148 3.5 9.6 0.00 0.00 0.00 59 1016.7
20260510055404 48 136 2.6 6.1 0.00 0.00 0.00 60 1016.7
20260510054504 48 153 4.3 7.0 0.00 0.00 0.00 59 1016.8
20260510053604 47 156 4.3 7.8 0.00 0.00 0.00 61 1016.8
20260510052704 46 147 3.5 6.1 0.00 0.00 0.00 63 1017.0
20260510051804 46 153 3.5 5.2 0.00 0.00 0.00 65 1017.0
20260510050904 45 148 2.6 6.1 0.00 0.00 0.00 65 1017.1
20260510050004 45 153 2.6 6.1 0.00 0.00 0.00 65 1017.1
20260510045425 45 155 2.6 4.3 0.00 0.00 0.00 64 1017.3
20260510044504 44 181 2.6 5.2 0.00 0.00 0.00 66 1017.1
20260510043604 42 202 0.9 1.7 0.00 0.00 0.00 68 1017.2
20260510042704 41 202 0.9 2.6 0.00 0.00 0.00 69 1017.5
20260510041804 41 202 0.0 1.7 0.00 0.00 0.00 69 1017.6
20260510040904 41 202 0.9 2.6 0.00 0.00 0.00 69 1017.7
20260510040004 40 202 1.7 2.6 0.00 0.00 0.00 69 1017.8
20260510035404 40 202 0.9 2.6 0.00 0.00 0.00 69 1017.9
20260510034504 39 202 0.9 2.6 0.00 0.00 0.00 71 1017.8
20260510033604 38 202 0.9 2.6 0.00 0.00 0.00 72 1017.7
20260510032704 38 202 1.7 2.6 0.00 0.00 0.00 72 1017.9
20260510031804 37 202 0.9 2.6 0.00 0.00 0.00 72 1017.9
20260510030904 37 202 1.7 2.6 0.00 0.00 0.00 73 1018.0
20260510030004 37 202 0.9 2.6 0.00 0.00 0.00 72 1018.1
20260510025404 37 202 0.9 2.6 0.00 0.00 0.00 73 1018.1
20260510024504 36 202 0.0 1.7 0.00 0.00 0.00 73 1018.2
20260510023625 36 202 0.9 2.6 0.00 0.00 0.00 72 1018.2
20260510022725 36 202 0.9 1.7 0.00 0.00 0.00 72 1018.3
20260510021804 36 202 0.9 2.6 0.00 0.00 0.00 72 1018.2
20260510020904 35 202 0.9 3.5 0.00 0.00 0.00 73 1018.3
20260510020004 35 200 1.7 3.5 0.00 0.00 0.00 74 1018.4
20260510015425 35 205 0.9 3.5 0.00 0.00 0.00 72 1018.4
20260510014504 35 205 0.9 2.6 0.00 0.00 0.00 73 1018.4
20260510013604 35 176 0.9 3.5 0.00 0.00 0.00 73 1018.5
20260510012725 35 146 0.9 3.5 0.00 0.00 0.00 73 1018.5
20260510011804 35 146 0.9 3.5 0.00 0.00 0.00 72 1018.6
20260510010904 35 144 0.0 1.7 0.00 0.00 0.00 71 1018.6
20260510010004 36 144 0.0 1.7 0.00 0.00 0.00 70 1018.7
20260510005404 36 144 0.9 2.6 0.00 0.00 0.00 69 1018.8
20260510004504 36 144 0.9 4.3 0.00 0.00 0.00 67 1018.8
20260510003604 36 147 1.7 2.6 0.00 0.00 0.00 66 1018.8
20260510002704 36 147 0.9 2.6 0.00 0.00 0.00 66 1018.8
20260510001804 36 150 1.7 2.6 0.00 0.00 0.00 66 1018.8
20260510000904 37 157 1.7 5.2 0.00 0.00 0.00 65 1018.9
20260510000004 36 157 1.7 4.3 0.00 0.00 0.00 66 1018.9
20260509235404 36 153 1.7 4.3 0.00 0.00 0.00 68 1018.9
20260509234504 36 116 0.9 3.5 0.00 0.00 0.00 67 1019.1
20260509233604 36 331 0.9 2.6 0.00 0.00 0.00 68 1019.2
20260509232704 36 321 0.9 1.7 0.00 0.00 0.00 69 1019.3
20260509231804 36 321 0.9 2.6 0.00 0.00 0.00 69 1019.4
20260509230904 35 321 0.9 3.5 0.00 0.00 0.00 69 1019.5
20260509230025 35 320 0.0 1.7 0.00 0.00 0.00 70 1019.6
20260509225404 35 0 0.0 0.0 0.00 0.00 0.00 70 1019.6
20260509224504 36 0 0.0 0.0 0.00 0.00 0.00 68 1019.8
20260509223604 37 0 0.0 0.0 0.00 0.00 0.00 67 1019.8
20260509222704 37 0 0.0 0.0 0.00 0.00 0.00 67 1019.8
20260509221804 37 0 0.0 0.0 0.00 0.00 0.00 67 1019.9
20260509220904 38 0 0.0 0.0 0.00 0.00 0.00 69 1019.9
20260509220004 38 0 0.0 0.0 0.00 0.00 0.00 65 1020.0
20260509215404 38 0 0.0 0.0 0.00 0.00 0.00 63 1020.1
20260509214504 38 0 0.0 0.0 0.00 0.00 0.00 64 1020.2
20260509213604 38 0 0.0 0.0 0.00 0.00 0.00 64 1020.3
20260509212704 38 0 0.0 0.0 0.00 0.00 0.00 63 1020.3
20260509211804 38 0 0.0 0.0 0.00 0.00 0.00 63 1020.2
20260509210904 38 0 0.0 0.0 0.00 0.00 0.00 64 1020.4
20260509210004 38 0 0.0 0.0 0.00 0.00 0.00 70 1020.3
20260509205425 39 0 0.0 0.0 0.00 0.00 0.00 66 1020.3
20260509204504 39 0 0.0 0.0 0.00 0.00 0.00 65 1020.4
20260509203604 39 0 0.0 0.0 0.00 0.00 0.00 63 1020.4
20260509202704 39 0 0.0 0.0 0.00 0.00 0.00 64 1020.3
20260509201804 40 0 0.0 0.0 0.00 0.00 0.00 65 1020.4
20260509200904 41 321 0.0 1.7 0.00 0.00 0.00 63 1020.4
20260509200025 41 320 0.9 1.7 0.00 0.00 0.00 60 1020.4
20260509195404 40 321 0.0 1.7 0.00 0.00 0.00 61 1020.4
20260509194504 40 0 0.0 0.0 0.00 0.00 0.00 62 1020.4
20260509193604 41 0 0.0 0.0 0.00 0.00 0.00 62 1020.4
20260509192704 42 321 0.0 0.9 0.00 0.00 0.00 62 1020.4
20260509191804 42 320 0.0 0.9 0.00 0.00 0.00 60 1020.4
20260509190925 43 321 1.7 3.5 0.00 0.00 0.00 59 1020.3
20260509190004 44 320 0.9 2.6 0.00 0.00 0.00 53 1020.3